Flag for Norway Weather past 2 weeks in Førde, Norway

Now
75 °F

Sunny.


Feels Like: 78 °F
Forecast: 61 / 90 °F
Wind: 7 mph from West

Location: Forde / Bringeland

Current Time: Jul 23, 2014 at 12:33:08 AM

Latest Report: Jul 22, 2014 at 6:50 PM


Visibility: 10 mi

Pressure: 30.30 "Hg

Humidity: 47%

Dew point: 54 °F

Location of FørdeLocation

Historic Weather in Førde — Graph

°F

Førde temperature yesterday

Maximum temperature yesterday: 79 °F (at 11:50 AM)
Minimum temperature yesterday: 61 °F (at 5:50 AM)
Average temperature yesterday: 74 °F

Past Weeks' High & Low Weather Summary

 TemperatureHumidityPressure
High82 °F (Jul 9, 3:50 PM)100% (Jul 14, 10:20 PM)30.30 "Hg (Jul 14, 10:20 PM)
Low52 °F (Jul 8, 5:50 AM)30% (Jul 20, 6:50 PM)29.65 "Hg (Jul 14, 6:20 AM)
Average67 °F65%30.00 "Hg
* Reported Jul 7 6:20 PM — Jul 22 6:50 PM, Førde, Weather by CustomWeather, © 2014

Note: Actual official high and low records may vary slightly from our data, if they occured in-between our weather recording intervals... More about our weather records

Advertising

Førde weather history for previous 24 hours

 ConditionsComfort  
Time TempWeatherWind HumidityBarometerVisibility
6:50 PM
Jul 22
75 °FSunny.7 mph47%30.30 "Hg10 mi
6:20 PM75 °FSunny.10 mph47%30.30 "Hg10 mi
5:50 PM77 °FSunny.10 mph47%30.30 "Hg10 mi
5:20 PM75 °FPassing clouds.10 mph50%30.27 "HgN/A
4:50 PM77 °FPassing clouds.12 mph47%30.27 "HgN/A
4:20 PM77 °FPassing clouds.10 mph47%30.27 "HgN/A
3:50 PM77 °FPassing clouds.9 mph51%30.27 "HgN/A
3:20 PM75 °FSunny.9 mph54%30.27 "Hg10 mi
2:50 PM75 °FSunny.6 mph54%30.27 "Hg10 mi
2:20 PM77 °FPassing clouds.8 mph54%30.27 "HgN/A
1:50 PM77 °FSunny.10 mph51%30.27 "Hg10 mi
1:20 PM79 °FPassing clouds.8 mph45%30.27 "HgN/A
12:50 PM79 °FSunny.8 mph45%30.27 "Hg10 mi
12:20 PM77 °FSunny.10 mph47%30.27 "Hg10 mi
11:50 AM79 °FSunny.5 mph42%30.27 "Hg10 mi
11:20 AM77 °FSunny.6 mph47%30.24 "Hg10 mi
10:50 AM75 °FSunny.5 mph54%30.24 "Hg10 mi
10:20 AM75 °FSunny.3 mph54%30.24 "Hg10 mi
9:50 AM72 °FSunny.5 mph57%30.24 "Hg10 mi
9:20 AM70 °FSunny.3 mph60%30.24 "Hg10 mi
8:50 AM70 °FSunny.3 mph60%30.24 "Hg10 mi
8:20 AM68 °FSunny.3 mph64%30.24 "Hg10 mi
7:50 AM68 °FSunny.2 mph64%30.24 "Hg10 mi
7:20 AM66 °FSunny.2 mph68%30.24 "Hg10 mi
6:50 AM64 °FSunny.1 mph68%30.21 "Hg10 mi
5:50 AM61 °FSunny.2 mph77%30.21 "Hg10 mi
Weather by CustomWeather, © 2014

See weather overviewHow to use our weather pages